TimeCDT,TemperatureF,Dew PointF,Humidity,Sea Level PressureIn,VisibilityMPH,Wind Direction,Wind SpeedMPH,Gust SpeedMPH,PrecipitationIn,Events,Conditions,WindDirDegrees,DateUTC
12:56 AM,41.0,36.0,82,29.88,-9999.0,North,8.1,-,N/A,,Unknown,350,2013-04-29 05:56:00
1:56 AM,39.0,35.1,86,29.88,-9999.0,NNW,9.2,-,N/A,,Unknown,340,2013-04-29 06:56:00
2:56 AM,37.0,33.1,86,29.88,-9999.0,North,9.2,-,N/A,,Unknown,350,2013-04-29 07:56:00
3:56 AM,36.0,32.0,86,29.89,-9999.0,North,8.1,-,N/A,,Unknown,350,2013-04-29 08:56:00
4:56 AM,35.1,30.9,85,29.89,-9999.0,NW,5.8,-,N/A,,Unknown,320,2013-04-29 09:56:00
5:56 AM,36.0,30.0,79,29.89,-9999.0,NW,3.5,-,N/A,,Unknown,320,2013-04-29 10:56:00
6:56 AM,35.1,30.0,82,29.88,-9999.0,Calm,Calm,-,N/A,,Unknown,0,2013-04-29 11:56:00
7:56 AM,39.0,36.0,89,29.87,-9999.0,Calm,Calm,-,N/A,,Unknown,0,2013-04-29 12:56:00
8:56 AM,45.0,35.1,68,29.84,-9999.0,SSE,6.9,-,N/A,,Unknown,160,2013-04-29 13:56:00
9:56 AM,48.9,36.0,61,29.81,-9999.0,SSE,11.5,-,N/A,,Unknown,160,2013-04-29 14:56:00
10:56 AM,52.0,37.0,57,29.77,-9999.0,South,12.7,-,N/A,,Unknown,170,2013-04-29 15:56:00
11:56 AM,57.0,36.0,45,29.75,-9999.0,South,12.7,-,N/A,,Unknown,170,2013-04-29 16:56:00
12:56 PM,60.1,36.0,41,29.71,-9999.0,SSE,13.8,-,N/A,,Unknown,160,2013-04-29 17:56:00
1:56 PM,64.0,39.0,40,29.66,-9999.0,South,15.0,19.6,N/A,,Unknown,180,2013-04-29 18:56:00
2:56 PM,66.0,37.9,36,29.62,-9999.0,SSE,16.1,21.9,N/A,,Unknown,160,2013-04-29 19:56:00
3:56 PM,68.0,37.0,32,29.59,-9999.0,South,18.4,23.0,N/A,,Unknown,180,2013-04-29 20:56:00
4:56 PM,68.0,37.0,32,29.56,-9999.0,South,12.7,23.0,N/A,,Unknown,170,2013-04-29 21:56:00
5:56 PM,68.0,39.9,36,29.52,-9999.0,South,12.7,-,N/A,,Unknown,170,2013-04-29 22:56:00
6:56 PM,64.9,44.1,47,29.50,-9999.0,SSE,13.8,-,N/A,,Unknown,160,2013-04-29 23:56:00
7:56 PM,62.1,46.0,56,29.48,-9999.0,SSE,11.5,-,N/A,,Unknown,160,2013-04-30 00:56:00
8:56 PM,57.9,46.0,65,29.46,-9999.0,South,8.1,-,N/A,,Unknown,170,2013-04-30 01:56:00
9:56 PM,55.9,46.0,69,29.43,-9999.0,South,10.4,-,N/A,,Unknown,190,2013-04-30 02:56:00
10:56 PM,54.0,46.0,75,29.41,-9999.0,South,8.1,-,N/A,,Unknown,180,2013-04-30 03:56:00
11:56 PM,53.1,46.9,80,29.36,-9999.0,South,6.9,-,N/A,,Unknown,190,2013-04-30 04:56:00